Location: Fredericksburg
(30.2750°N, 98.8720°W)
Time: 11:29:28
(UTC-06:00)

Daily predictions for brighter satellites

Satellite Brightness Start Highest point End
(mag) Time Altitude Azimuth Time Altitude Azimuth Time Altitude Azimuth
Cosmos 2322 Rocket 2.7 18:46:37 10° N 18:51:50 39° ENE 18:57:01 10° SE
Tiangong 2 3.4 18:50:38 10° N 18:52:00 12° NNE 18:53:21 10° NE
Meteor 1-28 Rocket 3.4 18:49:10 10° N 18:52:58 77° WNW 18:56:46 10° SSW
Cosmos 44 Rocket 3.1 18:50:56 10° NNW 18:55:39 74° ENE 19:00:17 10° SSE
Okean 2 Rocket 4.0 18:54:26 10° SSW 18:58:48 55° W 19:03:09 10° N
COSMO-SKYMED 1 3.7 18:55:12 10° N 18:59:24 49° WNW 19:03:34 10° SSW
Cosmos 1140 Rocket 4.0 18:58:16 10° SSE 19:02:54 36° E 19:07:33 10° NE
Cosmos 1190 Rocket 4.5 18:58:12 10° SSW 19:03:20 66° WNW 19:08:30 10° N
Cosmos 1709 Rocket 4.1 18:58:13 10° SSE 19:04:15 51° E 19:10:13 10° NNE
Okean 1 3.7 19:03:17 10° N 19:07:08 40° E 19:10:57 10° SSE
Cosmos 1461 3.8 19:06:06 10° N 19:09:36 28° ENE 19:13:11 10° ESE
H-2A R/B 4.3 19:10:08 12° E 19:11:27 15° ENE 19:13:33 10° NE
Cosmos 2292 Rocket 3.9 19:08:01 10° S 19:12:23 68° E 19:18:20 10° N
Cosmos 44 2.9 19:11:03 10° NNW 19:15:25 72° ENE 19:19:41 10° SSE
Cosmos 2151 Rocket 3.8 19:12:58 10° S 19:17:26 79° W 19:21:58 10° N
Cosmos 1812 3.2 19:20:10 10° NNW 19:23:59 65° W 19:27:47 10° S
Okean 1 Rocket 3.5 19:19:57 10° SSE 19:24:05 38° E 19:28:14 10° NNE
CENTAUR R/B 3.7 19:16:28 10° NW 19:24:28 64° WSW 19:32:42 10° SSE
NOAA 12 4.1 19:21:17 10° SSE 19:26:35 88° WSW 19:31:56 10° NNW
HJ-1C 3.9 19:24:41 10° SE 19:27:50 37° ENE 19:30:59 10° N
GPS 2-04 Rocket1 3.1 19:24:04 10° SW 19:28:16 55° SSE 19:30:46 23° E
Meteor 1-11 Rocket 3.8 19:22:52 10° S 19:28:27 58° E 19:34:11 10° NNE
METEOR-M 4.2 19:24:51 10° S 19:30:12 83° W 19:35:33 10° NNW
Cosmos 1954 Rocket 4.1 19:25:54 10° SSW 19:31:03 81° WNW 19:36:17 10° NNE
Abrixas rocket 3.1 19:29:12 10° SSW 19:32:14 33° SE 19:33:02 28° ESE
Cosmos 2219 3.6 19:29:55 10° S 19:35:11 39° ESE 19:40:29 10° NE
GEOS 3 Rocket 4.4 19:32:03 10° NNE 19:37:08 53° NW 19:42:16 10° SW
Cosmos 1633 3.0 19:39:58 10° SSW 19:43:37 65° W 19:47:16 10° N
Cosmos 2360 Rocket 2.6 19:38:44 10° N 19:44:02 40° ENE 19:47:02 23° ESE
Cosmos 1602 3.9 19:40:15 10° S 19:44:05 73° W 19:47:57 10° N
SL-8 R/B 4.4 19:39:30 10° WNW 19:44:11 52° SW 19:48:48 10° SSE
Helios 1B rocket 2.8 19:44:10 24° NE 19:46:06 39° E 19:49:58 10° S
FREGAT/IRIS 3.8 19:43:53 10° S 19:46:49 44° W 19:49:47 10° NNW
Okean 1-7 Rocket 4.3 19:44:32 10° NNE 19:48:12 33° ENE 19:48:12 33° ENE
GOES 2 Rocket 4.3 19:45:21 10° W 19:49:46 34° SSW 19:52:04 20° SSE
NOSS 8 (H) 4.4 19:49:06 10° SSW 19:52:36 78° WNW 19:53:58 33° NNE
ALOS 2.2 19:50:32 10° S 19:55:11 85° WSW 19:59:53 10° NNW
ATLAS 2A CENTAUR R/B 2.5 20:02:02 10° WSW 20:04:56 46° S 20:07:24 30° SE
ASTRO E2 3.5 20:01:52 10° W 20:05:41 42° SSW 20:06:24 38° S
Cosmos 1741 Rocket 4.1 20:06:16 10° SSW 20:11:29 76° WNW 20:16:42 10° NNE
BREEZE-M DEB (TANK) 4.2 20:10:14 10° NNW 20:12:04 25° NNE 20:12:04 25° NNE
Resurs 01 Rocket 1.9 20:09:23 10° S 20:13:44 67° WSW 20:18:08 10° NNW
SL-08 ROCKET BODY 4.4 20:09:10 10° S 20:15:17 84° W 20:21:31 10° N
SL-16 R/B 3.9 20:12:52 10° NW 20:17:50 32° WSW 20:22:48 10° SSW
Cosmos 1340 4.3 20:15:47 10° NNW 20:19:13 34° W 20:22:37 10° SSW
Cosmos 1610 Rocket 4.4 20:16:24 10° S 20:22:34 64° E 20:28:42 10° NNE
Cosmos 1238 Rocket 4.4 20:22:18 10° NW 20:24:45 24° W 20:24:54 24° W
Intercosmos 24 4.2 20:21:28 10° SSW 20:25:10 68° W 20:30:01 10° N
Hubble Space Telescope 2.7 20:23:14 10° SW 20:25:09 21° SSW 20:25:09 21° SSW
Meteor 1-5 Rocket 4.4 20:22:23 10° S 20:28:19 81° W 20:34:18 10° N
Tiangong 2 3.9 20:25:56 10° NW 20:26:33 15° NW 20:26:33 15° NW
DELTA 2 R/B (1) 3.9 20:24:09 10° NW 20:29:26 51° NNE 20:29:26 51° NNE
BREEZE-M DEB (TANK) 4.1 20:28:00 10° NW 20:30:58 35° WNW 20:30:58 35° WNW
Atlas Centaur 2 4.3 20:29:28 10° S 20:31:18 14° S 20:31:18 14° S
CZ-3 Stage 3 4.1 19:58:19 10° SW 20:41:59 51° SSE 20:44:32 44° SE
ATLAS CENTAUR R/B 3.7 20:42:26 10° SW 20:45:58 29° WSW 20:45:58 29° WSW
Cosmos 2322 4.2 20:43:11 10° NNW 20:48:45 58° WSW 20:49:34 52° SW
COSMOS 2428 4.1 20:56:16 10° NNW 20:59:03 30° NNW 20:59:03 30° NNW
ATLAS 3B CENTAUR R/B 4.4 21:01:18 10° SW 21:23:49 50° SSE 21:23:49 50° SSE
Cosmos 2360 Rocket 4.4 21:23:36 10° NW 21:27:39 20° W 21:28:57 19° WSW
